Location: Newark
(7.0858°N, 171.3717°E)
Time: 23:47:07
(UTC+00:00)

Vanguard 2 - Pass Details

Date: 28 November 2020
Orbit: 553 x 2937 km, 32.9° (Epoch: 20 January)

Event Time Altitude Azimuth Distance (km) Brightness Sun altitude
Rises 04:22:51 0° 325° (NW) 2,959 10.6 24.6°
Reaches altitude 10° 04:25:11 10° 338° (NNW) 2,217 9.9 24.1°
Maximum altitude 04:29:34 27° 38° (NE) 1,675 9.0 23.1°
Drops below altitude 10° 04:35:50 10° 93° (E) 3,258 10.3 21.7°
Sets 04:40:03 0° 104° (ESE) 4,681 11.1 20.8°
